Regional Weather Roundup
Issued by NWS Charleston, SC

Current Version | Previous Version | Text Only | Print | Product List | Glossary Off
Versions: 1 2 3 4 5 6 7 8 9 10 11 12 13 14 15 16 17 18 19 20 21 22 23 24 25 26 27 28 29 30 31 32 33 34 35 36 37 38 39 40 41 42 43 44 45 46 47 48 49 50

000
ASUS42 KCHS 290528
RWRCHS

REGIONAL WEATHER ROUNDUP
NATIONAL WEATHER SERVICE CHARLESTON SC
100 AM EDT FRI APR 29 2016

NOTE: "FAIR" INDICATES FEW OR NO CLOUDS BELOW 12,000 FEET WITH NO
SIGNIFICANT WEATHER AND/OR OBSTRUCTIONS TO VISIBILITY.

NOT ALL STATIONS ARE QUALITY CONTROLLED. USE DATA WITH CAUTION...
ESPECIALLY DEWPOINT OBSERVATIONS.

SCZ027-030-031-034>040-042>050-290600-
...SOUTHEAST SOUTH CAROLINA...

CITY           SKY/WX    TMP DP  RH WIND       PRES   REMARKS
N CHARLESTON   CLEAR     71  67  87 W3        29.92S
WATERFRONT PRK   N/A     72  70  93 VRB2      29.91S
MOUNT PLEASANT FAIR      66  66 100 CALM      29.93S FOG
JOHNS ISLAND   FAIR      72  70  94 CALM      29.93S
PINOPOLIS        N/A     73  70  88 SW8       29.83R
MONCKS CORNER  FAIR      66  63  88 SW6       29.92S
SUMMERVILLE    FAIR      68  68 100 CALM      29.94R
BEAUFORT MCAS  CLOUDY    73  68  84 SW8       29.93F
BEAUFORT ARPT  FAIR      73  66  78 SW7       29.93S
HILTON HEAD IS CLEAR     73  70  88 SW8       29.95F
WALTERBORO     CLEAR     72  70  94 SW6       29.93S
ALLENDALE      FAIR      70  68  94 CALM      29.93S

...SOUTHERN MIDLANDS AND PEE DEE...

CITY           SKY/WX    TMP DP  RH WIND       PRES   REMARKS
GEORGETOWN     FAIR      68  64  88 SW3       29.93S
KINGSTREE      FAIR      68  64  88 CALM      29.90F
ORANGEBURG     CLEAR     72  68  87 W8        29.92S
BARNWELL       FAIR      73  72  94 SW7       29.94S
AIKEN          FAIR      68  66  94 SW5       29.96S
MANNING        NOT AVBL
COLUMBIA       CLEAR     73  68  84 W7        29.90S
SUMTER         NOT AVBL
FLORENCE       CLEAR     71  67  87 SW7       29.89S
MYRTLE BEACH   CLEAR     72  63  73 SW6       29.93F
N MYRTLE BEACH CLEAR     70  67  90 SW14      29.91F

$$

GAZ063-065-086>088-099>101-113>116-118-119-134>141-150-290600-
...SOUTHEAST GEORGIA...

CITY           SKY/WX    TMP DP  RH WIND       PRES   REMARKS
SAVANNAH ARPT  PTCLDY    72  67  84 SW8       29.96S
HUNTER AAF     NOT AVBL
FORT STEWART   NOT AVBL
STATESBORO     CLOUDY    75  73  91 W5        29.95S
SYLVANIA       CLOUDY    71  70  97 CALM      29.95S
CLAXTON        FAIR      66  66 100 CALM      29.96S FOG

...CSRA...CENTRAL AND FAR SOUTHEAST GEORGIA...

CITY           SKY/WX    TMP DP  RH WIND       PRES   REMARKS
THOMSON        CLEAR     73  70  89 SW6       29.99S
AUGUSTA-BUSH   CLEAR     72  68  87 SW8       29.93R
AUGUSTA-DANIEL CLEAR     75  66  73 VRB5      29.94S
SWAINSBORO     FAIR      68  66  94 CALM      29.97S
VIDALIA        CLOUDY    70  68  94 W3        29.96S
EASTMAN        FAIR      71  71 100 CALM      29.99S
HAZLEHURST     FAIR      72  69  92 SW5       29.96S
ALMA           PTCLDY    66  66 100 CALM      29.97S
WAYCROSS       PTCLDY    68  68 100 SW3       29.98S FOG
JESUP          FAIR      72  70  94 CALM      29.98S
BAXLEY         FAIR      70  70 100 CALM      29.96F
BRUNSWICK      PTCLDY    72  70  94 CALM      29.98F
SAINT SIMONS   PTCLDY    71  68  90 SW6       29.97F

$$

SCZ027-028-034-036>038-045-046-048>050-GAZ119-141-290600-
...LAKE AND SUPPLEMENTAL COASTAL OBSERVATIONS...

STATION/POSITION TIME  TEMP    WIND        PRES    WAVE   SWELL
                       AIR SEA DIR/SP/G            HT/PER HT/PER/DIR
                 (UTC) (F)     (DEG/KT/KT) (MB)    (FT/S) (FT/S/D)
WINYAH BAY       0400   72     220/  8     1012.0
LAKE MURRAY      0400   74     230/  6/  8 1011.9F
ACE BASIN NERRS  0400   73     240/  2     1014.0S
FORT PULASKI     0500   74 71  220/  6/  9 1014.5F
SAPELO ISLAND    0500   71     200/  5     1015.0S

$$

ANZ835-935-AMZ111-154-330-350-352-354-370-450-454-472-290600-
...C-MAN AND BUOY OBSERVATIONS...

STATION/POSITION TIME  TEMP    WIND        PRES    WAVE   SWELL
                       AIR SEA DIR/SP/G            HT/PER HT/PER/DIR
                 (UTC) (F)     (DEG/KT/KT) (MB)    (FT/S) (FT/S/D)
BUOY 41004       0450   74 70  210/ 14/ 16 1013.3R   3/ 5   2/ 9
BUOY 41008       NOT AVBL
FOLLY BEACH CMAN 0500   71     210/  9/ 10 1013.7R
CAPERS NEARSHORE 0408   71 70  220/ 14/ 19 1013.1F
FRIPP NEARSHORE  0508   72 71  230/ 16/ 19 1012.9F


STATION/POSITION TIME  TEMP    WIND        PRES    WAVE   SWELL
                       AIR SEA DIR/SP/G            HT/PER HT/PER/DIR
                 (UTC) (F)     (DEG/KT/KT) (MB)    (FT/S) (FT/S/D)
5E ST. MARYS GA  0421      72                N/A     2/11
FRYING PAN BUOY  0500   72 70  210/ 12/ 14 1012.8F
BUOY 41025       0450   73 71  220/ 17/ 19 1012.2F   4/ 6   2/120/11
CAPE LOOKOUT NC  0500   70     210/  8/ 10 1012.2F
BUOY 41002       0450   71 71  180/ 12/ 14 1015.8F   2/ 9   2/ 90/ 9
BUOY 41010       0420   76 76  170/ 10/ 12 1016.3F
ST AUGUSTINE FL  0500   75 69  210/  6/  7 1016.2F


$$




USA.gov is the U.S. government's official web portal to all federal, state and local government web resources and services.